Tracking 21094 objects as of 13-Aug-2020
HD Live streaming from Space Station
objects crossing your sky now
Track the most recent launched group of Starlink satellites

GAOFEN 3 DEB

Track GAOFEN 3 DEB now!
10-day predictions


NORAD ID: 42679
Int'l Code: 2016-049D
Perigee: 743.5 km
Apogee: 753.1 km
Inclination: 98.4 °
Period: 99.6 minutes
Semi major axis: 7119 km
RCS: Unknown
Launch date: August 9, 2016
Source: People's Republic of China (PRC)
Launch site: Jiuquan Satellite Launch Center, China (JSC)

Note: This is SATELLITE DEBRIS
aabbcc
Your satellite tracking list
Your tracking list is empty




NASA's NSSDC Master Catalog

Two Line Element Set (TLE):
1 42679U 16049D   20225.77089764 -.00000003  00000-0  11536-4 0  9991
2 42679  98.3892 238.1419 0006799   5.8701 354.2569 14.45261993211371
Source of the keplerian elements: AFSPC